Time,TemperatureF,DewpointF,PressureIn,WindDirection,WindDirectionDegrees,WindSpeedMPH,WindSpeedGustMPH,Humidity,HourlyPrecipIn,Conditions,Clouds,dailyrainin,SoftwareType,DateUTC
2013-06-14 00:01:00,61.8,50.7,30.05,East,79,3.0,4.0,67,0.00,,CLR,0.00,VWS V14.01,2013-06-14 05:01:00,
2013-06-14 00:06:00,61.5,50.5,30.05,ENE,72,3.0,6.0,67,0.00,,CLR,0.00,VWS V14.01,2013-06-14 05:06:00,
2013-06-14 00:11:00,61.2,50.6,30.04,East,87,3.0,6.0,68,0.00,,CLR,0.00,VWS V14.01,2013-06-14 05:11:00,
2013-06-14 00:16:00,60.9,50.7,30.04,ENE,71,4.0,6.0,69,0.00,,CLR,0.00,VWS V14.01,2013-06-14 05:16:00,
2013-06-14 00:21:00,60.7,50.5,30.04,East,81,2.0,6.0,69,0.00,,CLR,0.00,VWS V14.01,2013-06-14 05:21:00,
2013-06-14 00:26:00,60.5,50.7,30.04,ENE,64,4.0,6.0,70,0.00,,CLR,0.00,VWS V14.01,2013-06-14 05:26:00,
2013-06-14 00:31:00,60.4,50.6,30.04,East,79,3.0,4.0,70,0.00,,CLR,0.00,VWS V14.01,2013-06-14 05:31:00,
2013-06-14 00:36:00,60.2,50.8,30.04,East,82,2.0,4.0,71,0.00,,SCT120,0.00,VWS V14.01,2013-06-14 05:36:00,
2013-06-14 00:41:00,59.9,50.5,30.04,ENE,77,2.0,4.0,71,0.00,,SCT120,0.00,VWS V14.01,2013-06-14 05:41:00,
2013-06-14 00:46:00,59.7,50.7,30.04,ENE,73,2.0,4.0,72,0.00,,SCT120,0.00,VWS V14.01,2013-06-14 05:46:00,
2013-06-14 00:51:00,59.7,50.7,30.04,ENE,73,1.0,4.0,72,0.00,,SCT120,0.00,VWS V14.01,2013-06-14 05:51:00,
2013-06-14 00:56:00,59.6,50.6,30.04,ENE,75,0.0,4.0,72,0.00,,SCT120,0.00,VWS V14.01,2013-06-14 05:56:00,
2013-06-14 01:01:00,59.4,50.8,30.04,ENE,75,0.0,1.0,73,0.00,,SCT120,0.00,VWS V14.01,2013-06-14 06:01:00,
2013-06-14 01:06:00,59.1,50.5,30.05,ENE,75,0.0,1.0,73,0.00,,SCT120,0.00,VWS V14.01,2013-06-14 06:06:00,
2013-06-14 01:11:00,58.8,50.5,30.05,ENE,75,0.0,1.0,74,0.00,,SCT120,0.00,VWS V14.01,2013-06-14 06:11:00,
2013-06-14 01:16:00,58.2,50.3,30.05,ENE,75,0.0,1.0,75,0.00,,SCT120,0.00,VWS V14.01,2013-06-14 06:16:00,
2013-06-14 01:21:00,57.7,50.2,30.04,ENE,75,0.0,1.0,76,0.00,,SCT120,0.00,VWS V14.01,2013-06-14 06:21:00,
2013-06-14 01:26:00,57.4,50.3,30.04,ENE,75,0.0,1.0,77,0.00,,SCT120,0.00,VWS V14.01,2013-06-14 06:26:00,
2013-06-14 01:31:00,57.4,50.3,30.04,ENE,75,0.0,0.0,77,0.00,,SCT120,0.00,VWS V14.01,2013-06-14 06:31:00,
2013-06-14 01:36:00,57.3,50.5,30.04,ENE,75,0.0,0.0,78,0.00,,SCT120,0.00,VWS V14.01,2013-06-14 06:36:00,
2013-06-14 01:41:00,57.5,50.7,30.04,ENE,75,0.0,1.0,78,0.00,,SCT120,0.00,VWS V14.01,2013-06-14 06:41:00,
2013-06-14 01:46:00,57.5,50.4,30.04,ENE,75,0.0,1.0,77,0.00,,SCT120,0.00,VWS V14.01,2013-06-14 06:46:00,
2013-06-14 01:50:00,57.5,50.7,30.04,ENE,75,0.0,1.0,78,0.00,,BKN120,0.00,VWS V14.01,2013-06-14 06:50:00,
2013-06-14 01:55:00,56.9,50.1,30.04,ENE,75,0.0,1.0,78,0.00,,BKN120,0.00,VWS V14.01,2013-06-14 06:55:00,
2013-06-14 02:00:00,56.3,50.2,30.04,ENE,75,0.0,0.0,80,0.00,,BKN120,0.00,VWS V14.01,2013-06-14 07:00:00,
2013-06-14 02:05:00,56.1,50.4,30.04,ENE,75,0.0,0.0,81,0.00,,BKN120,0.00,VWS V14.01,2013-06-14 07:05:00,
2013-06-14 02:10:00,56.3,50.5,30.03,ENE,75,0.0,1.0,81,0.00,,BKN120,0.00,VWS V14.01,2013-06-14 07:10:00,
2013-06-14 02:15:00,56.7,50.6,30.03,ENE,76,0.0,2.0,80,0.00,,BKN120,0.00,VWS V14.01,2013-06-14 07:15:00,
2013-06-14 02:20:00,56.8,50.7,30.03,East,82,0.0,2.0,80,0.00,,BKN120,0.00,VWS V14.01,2013-06-14 07:20:00,
2013-06-14 02:25:00,56.8,50.7,30.03,ENE,65,0.0,2.0,80,0.00,,BKN120,0.00,VWS V14.01,2013-06-14 07:25:00,
2013-06-14 02:30:00,56.8,50.7,30.03,East,87,1.0,2.0,80,0.00,,BKN120,0.00,VWS V14.01,2013-06-14 07:30:00,
2013-06-14 02:35:00,56.8,50.7,30.03,East,86,0.0,2.0,80,0.00,,BKN120,0.00,VWS V14.01,2013-06-14 07:35:00,
2013-06-14 02:40:00,56.7,50.6,30.03,East,84,0.0,2.0,80,0.00,,BKN120,0.00,VWS V14.01,2013-06-14 07:40:00,
2013-06-14 02:45:00,56.7,50.6,30.03,East,91,0.0,2.0,80,0.00,,BKN120,0.00,VWS V14.01,2013-06-14 07:45:00,
2013-06-14 02:50:00,56.5,50.4,30.03,East,101,0.0,2.0,80,0.00,,BKN120,0.00,VWS V14.01,2013-06-14 07:50:00,
2013-06-14 02:55:00,56.5,50.8,30.02,ENE,67,1.0,4.0,81,0.00,,BKN120,0.00,VWS V14.01,2013-06-14 07:55:00,
2013-06-14 03:00:00,56.6,50.8,30.01,ENE,70,1.0,5.0,81,0.00,,BKN120,0.00,VWS V14.01,2013-06-14 08:00:00,
2013-06-14 03:05:00,56.5,50.8,30.01,NE,56,1.0,5.0,81,0.00,,BKN120,0.00,VWS V14.01,2013-06-14 08:05:00,
2013-06-14 03:10:00,56.5,51.1,30.01,East,91,4.0,5.0,82,0.00,,BKN120,0.00,VWS V14.01,2013-06-14 08:10:00,
2013-06-14 03:15:00,56.4,51.0,30.01,East,87,1.0,5.0,82,0.00,,BKN120,0.00,VWS V14.01,2013-06-14 08:15:00,
2013-06-14 03:20:00,56.2,50.8,30.01,NE,52,4.0,5.0,82,0.00,,BKN120,0.00,VWS V14.01,2013-06-14 08:20:00,
2013-06-14 03:25:00,56.0,50.9,30.01,ENE,60,1.0,5.0,83,0.00,,BKN120,0.00,VWS V14.01,2013-06-14 08:25:00,
2013-06-14 03:30:00,55.8,50.7,30.02,East,83,1.0,2.0,83,0.00,,BKN120,0.00,VWS V14.01,2013-06-14 08:30:00,
2013-06-14 03:35:00,55.6,50.5,30.02,ESE,105,0.0,2.0,83,0.00,,OVC120,0.00,VWS V14.01,2013-06-14 08:35:00,
2013-06-14 03:40:00,55.4,50.7,30.02,ESE,105,0.0,2.0,84,0.00,,OVC120,0.00,VWS V14.01,2013-06-14 08:40:00,
2013-06-14 03:45:00,55.1,50.4,30.03,ESE,104,0.0,2.0,84,0.00,,OVC120,0.00,VWS V14.01,2013-06-14 08:45:00,
2013-06-14 03:50:00,54.8,50.4,30.03,ESE,104,0.0,2.0,85,0.00,,OVC120,0.00,VWS V14.01,2013-06-14 08:50:00,
2013-06-14 03:55:00,54.6,50.2,30.03,ESE,104,0.0,2.0,85,0.00,,OVC120,0.00,VWS V14.01,2013-06-14 08:55:00,
2013-06-14 04:00:00,54.2,50.1,30.03,ESE,105,0.0,0.0,86,0.00,,OVC120,0.00,VWS V14.01,2013-06-14 09:00:00,
2013-06-14 04:05:00,53.9,50.1,30.03,ESE,104,0.0,0.0,87,0.00,,OVC120,0.00,VWS V14.01,2013-06-14 09:05:00,
2013-06-14 04:10:00,53.7,49.9,30.03,ESE,104,0.0,0.0,87,0.00,,OVC120,0.00,VWS V14.01,2013-06-14 09:10:00,
2013-06-14 04:15:00,53.6,49.8,30.03,ESE,105,0.0,0.0,87,0.00,,OVC120,0.00,VWS V14.01,2013-06-14 09:15:00,
2013-06-14 04:20:00,53.4,49.9,30.03,ESE,105,0.0,0.0,88,0.00,,OVC120,0.00,VWS V14.01,2013-06-14 09:20:00,
2013-06-14 04:25:00,53.3,50.2,30.03,ESE,104,0.0,0.0,89,0.00,,OVC120,0.00,VWS V14.01,2013-06-14 09:25:00,
2013-06-14 04:30:00,53.6,50.4,30.03,ESE,104,0.0,0.0,89,0.00,,OVC120,0.00,VWS V14.01,2013-06-14 09:30:00,
2013-06-14 04:35:00,53.6,50.1,30.04,ESE,105,0.0,0.0,88,0.00,,BKN110,0.00,VWS V14.01,2013-06-14 09:35:00,
2013-06-14 04:40:00,53.4,49.9,30.04,ESE,105,0.0,0.0,88,0.00,,BKN110,0.00,VWS V14.01,2013-06-14 09:40:00,
2013-06-14 04:45:00,53.2,50.0,30.04,ESE,105,0.0,0.0,89,0.00,,BKN110,0.00,VWS V14.01,2013-06-14 09:45:00,
2013-06-14 04:50:00,52.9,49.8,30.04,ESE,104,0.0,0.0,89,0.00,,BKN110,0.00,VWS V14.01,2013-06-14 09:50:00,
2013-06-14 04:55:00,52.7,49.8,30.04,ESE,104,0.0,0.0,90,0.00,,BKN110,0.00,VWS V14.01,2013-06-14 09:55:00,
2013-06-14 05:00:00,52.7,49.8,30.04,ESE,104,0.0,0.0,90,0.00,,BKN110,0.00,VWS V14.01,2013-06-14 10:00:00,
2013-06-14 05:05:00,52.7,50.2,30.03,ESE,104,0.0,0.0,91,0.00,,BKN110,0.00,VWS V14.01,2013-06-14 10:05:00,
2013-06-14 05:10:00,52.9,50.3,30.04,ESE,105,0.0,1.0,91,0.00,,BKN110,0.00,VWS V14.01,2013-06-14 10:10:00,
2013-06-14 05:15:00,53.3,50.7,30.04,ESE,104,0.0,1.0,91,0.00,,BKN110,0.00,VWS V14.01,2013-06-14 10:15:00,
2013-06-14 05:20:00,53.6,50.7,30.04,ESE,105,0.0,1.0,90,0.00,,BKN110,0.00,VWS V14.01,2013-06-14 10:20:00,
2013-06-14 05:25:00,53.8,50.9,30.04,ESE,104,0.0,1.0,90,0.00,,BKN110,0.00,VWS V14.01,2013-06-14 10:25:00,
2013-06-14 05:30:00,54.0,51.1,30.03,ESE,103,1.0,1.0,90,0.00,,BKN110,0.00,VWS V14.01,2013-06-14 10:30:00,
2013-06-14 05:35:00,54.1,50.9,30.03,East,98,0.0,2.0,89,0.00,,SCT120,0.00,VWS V14.01,2013-06-14 10:35:00,
2013-06-14 05:40:00,54.2,51.0,30.03,East,97,1.0,2.0,89,0.00,,SCT120,0.00,VWS V14.01,2013-06-14 10:40:00,
2013-06-14 05:45:00,54.5,51.3,30.02,East,92,2.0,2.0,89,0.00,,SCT120,0.00,VWS V14.01,2013-06-14 10:45:00,
2013-06-14 05:50:00,55.2,52.0,30.02,East,98,3.0,4.0,89,0.00,,SCT090,0.00,VWS V14.01,2013-06-14 10:50:00,
2013-06-14 05:55:00,55.9,52.4,30.02,East,83,4.0,6.0,88,0.00,,SCT090,0.00,VWS V14.01,2013-06-14 10:55:00,
2013-06-14 06:00:00,56.4,52.3,30.01,East,99,4.0,7.0,86,0.00,,SCT090,0.00,VWS V14.01,2013-06-14 11:00:00,
2013-06-14 06:05:00,56.6,52.5,30.01,ENE,78,5.0,7.0,86,0.00,,SCT090,0.00,VWS V14.01,2013-06-14 11:05:00,
2013-06-14 06:10:00,56.7,52.6,30.02,East,100,5.0,7.0,86,0.00,,SCT090,0.00,VWS V14.01,2013-06-14 11:10:00,
2013-06-14 06:15:00,56.6,52.2,30.02,East,79,2.0,7.0,85,0.00,,SCT090,0.00,VWS V14.01,2013-06-14 11:15:00,
2013-06-14 06:20:00,56.7,52.2,30.02,East,94,3.0,7.0,85,0.00,,SCT090,0.00,VWS V14.01,2013-06-14 11:20:00,
2013-06-14 06:25:00,56.9,52.4,30.02,ENE,74,3.0,7.0,85,0.00,,SCT090,0.00,VWS V14.01,2013-06-14 11:25:00,
2013-06-14 06:30:00,56.9,52.4,30.02,East,99,3.0,4.0,85,0.00,,SCT090,0.00,VWS V14.01,2013-06-14 11:30:00,
2013-06-14 06:35:00,56.9,52.8,30.03,ESE,103,1.0,4.0,86,0.00,,CLR,0.00,VWS V14.01,2013-06-14 11:35:00,
2013-06-14 06:40:00,57.0,52.9,30.03,ESE,107,1.0,4.0,86,0.00,,CLR,0.00,VWS V14.01,2013-06-14 11:40:00,
2013-06-14 06:45:00,57.2,53.1,30.03,ESE,105,2.0,4.0,86,0.00,,CLR,0.00,VWS V14.01,2013-06-14 11:45:00,
2013-06-14 06:50:00,57.7,53.5,30.03,ESE,114,1.0,4.0,86,0.00,,SCT085,0.00,VWS V14.01,2013-06-14 11:50:00,
2013-06-14 06:55:00,58.5,54.0,30.03,ESE,111,1.0,4.0,85,0.00,,SCT085,0.00,VWS V14.01,2013-06-14 11:55:00,
2013-06-14 07:00:00,59.3,54.5,30.04,ESE,122,2.0,2.0,84,0.00,,SCT085,0.00,VWS V14.01,2013-06-14 12:00:00,
2013-06-14 07:05:00,60.1,54.9,30.03,ESE,103,5.0,5.0,83,0.00,,SCT085,0.00,VWS V14.01,2013-06-14 12:05:00,
2013-06-14 07:10:00,60.7,54.8,30.03,ESE,121,4.0,7.0,81,0.00,,SCT085,0.00,VWS V14.01,2013-06-14 12:10:00,
2013-06-14 07:15:00,61.2,54.6,30.03,SE,126,4.0,8.0,79,0.00,,SCT085,0.00,VWS V14.01,2013-06-14 12:15:00,
2013-06-14 07:20:00,61.8,54.9,30.03,ESE,105,5.0,8.0,78,0.00,,SCT085,0.00,VWS V14.01,2013-06-14 12:20:00,
2013-06-14 07:25:00,62.1,55.2,30.03,East,100,2.0,8.0,78,0.00,,SCT085,0.00,VWS V14.01,2013-06-14 12:25:00,
2013-06-14 07:30:00,62.1,55.2,30.03,SE,125,3.0,7.0,78,0.00,,SCT085,0.00,VWS V14.01,2013-06-14 12:30:00,
2013-06-14 07:35:00,62.1,55.2,30.03,SE,126,4.0,7.0,78,0.00,,CLR,0.00,VWS V14.01,2013-06-14 12:35:00,
2013-06-14 07:40:00,62.2,54.9,30.03,SE,143,3.0,7.0,77,0.00,,CLR,0.00,VWS V14.01,2013-06-14 12:40:00,
2013-06-14 07:45:00,62.2,54.5,30.03,ESE,115,3.0,9.0,76,0.00,,CLR,0.00,VWS V14.01,2013-06-14 12:45:00,
2013-06-14 07:50:00,62.3,55.0,30.03,SE,133,1.0,9.0,77,0.00,,CLR,0.00,VWS V14.01,2013-06-14 12:50:00,
2013-06-14 07:55:00,62.4,55.1,30.04,ESE,105,3.0,9.0,77,0.00,,CLR,0.00,VWS V14.01,2013-06-14 12:55:00,
2013-06-14 08:00:00,62.4,55.1,30.04,SE,132,3.0,3.0,77,0.00,,CLR,0.00,VWS V14.01,2013-06-14 13:00:00,
2013-06-14 08:05:00,62.4,55.1,30.04,SE,138,2.0,8.0,77,0.00,,CLR,0.00,VWS V14.01,2013-06-14 13:05:00,
2013-06-14 08:10:00,62.5,55.2,30.05,SE,136,1.0,8.0,77,0.00,,CLR,0.00,VWS V14.01,2013-06-14 13:10:00,
2013-06-14 08:15:00,62.6,55.3,30.05,SE,131,1.0,8.0,77,0.00,,CLR,0.00,VWS V14.01,2013-06-14 13:15:00,
2013-06-14 08:20:00,62.6,55.3,30.05,SE,131,2.0,8.0,77,0.00,,CLR,0.00,VWS V14.01,2013-06-14 13:20:00,
2013-06-14 08:25:00,62.7,55.4,30.04,SSE,147,2.0,8.0,77,0.00,,CLR,0.00,VWS V14.01,2013-06-14 13:25:00,
2013-06-14 08:30:00,62.9,55.6,30.04,ESE,117,2.0,5.0,77,0.00,,CLR,0.00,VWS V14.01,2013-06-14 13:30:00,
2013-06-14 08:35:00,63.4,56.1,30.04,ESE,115,3.0,6.0,77,0.00,,SCT120,0.00,VWS V14.01,2013-06-14 13:35:00,
2013-06-14 08:40:00,63.9,56.2,30.04,SSE,148,2.0,6.0,76,0.00,,SCT120,0.00,VWS V14.01,2013-06-14 13:40:00,
2013-06-14 08:45:00,64.4,56.3,30.04,East,92,2.0,8.0,75,0.00,,SCT120,0.00,VWS V14.01,2013-06-14 13:45:00,
2013-06-14 08:50:00,64.6,56.1,30.04,ESE,123,4.0,8.0,74,0.00,,SCT120,0.00,VWS V14.01,2013-06-14 13:50:00,
2013-06-14 08:55:00,64.6,56.1,30.03,SE,132,2.0,8.0,74,0.00,,SCT120,0.00,VWS V14.01,2013-06-14 13:55:00,
2013-06-14 09:00:00,64.7,56.2,30.04,ESE,121,4.0,7.0,74,0.00,,SCT120,0.00,VWS V14.01,2013-06-14 14:00:00,
2013-06-14 09:05:00,64.7,56.6,30.04,ESE,104,2.0,7.0,75,0.00,,SCT120,0.00,VWS V14.01,2013-06-14 14:05:00,
2013-06-14 09:10:00,64.8,56.3,30.04,ESE,117,3.0,7.0,74,0.00,,SCT120,0.00,VWS V14.01,2013-06-14 14:10:00,
2013-06-14 09:15:00,64.8,56.7,30.04,ESE,108,2.0,7.0,75,0.00,,SCT120,0.00,VWS V14.01,2013-06-14 14:15:00,
2013-06-14 09:20:00,65.1,56.6,30.04,SE,132,1.0,7.0,74,0.00,,SCT120,0.00,VWS V14.01,2013-06-14 14:20:00,
2013-06-14 09:25:00,65.9,57.4,30.04,ESE,107,2.0,7.0,74,0.00,,SCT120,0.00,VWS V14.01,2013-06-14 14:25:00,
2013-06-14 09:30:00,66.9,58.3,30.03,ESE,117,3.0,4.0,74,0.00,,SCT120,0.00,VWS V14.01,2013-06-14 14:30:00,
2013-06-14 09:35:00,66.9,57.6,30.03,East,84,1.0,7.0,72,0.00,,CLR,0.00,VWS V14.01,2013-06-14 14:35:00,
2013-06-14 09:40:00,67.0,57.3,30.04,ESE,104,3.0,7.0,71,0.00,,CLR,0.00,VWS V14.01,2013-06-14 14:40:00,
2013-06-14 09:45:00,67.1,57.8,30.03,SE,128,2.0,7.0,72,0.00,,CLR,0.00,VWS V14.01,2013-06-14 14:45:00,
2013-06-14 09:50:00,67.3,57.6,30.03,SE,133,2.0,7.0,71,0.00,,CLR,0.00,VWS V14.01,2013-06-14 14:50:00,
2013-06-14 09:55:00,68.1,58.3,30.03,ESE,115,5.0,7.0,71,0.00,,CLR,0.00,VWS V14.01,2013-06-14 14:55:00,
2013-06-14 10:00:00,68.8,58.6,30.03,ESE,123,2.0,5.0,70,0.00,,CLR,0.00,VWS V14.01,2013-06-14 15:00:00,
2013-06-14 10:05:00,68.9,59.1,30.03,ESE,110,1.0,8.0,71,0.00,,CLR,0.00,VWS V14.01,2013-06-14 15:05:00,
2013-06-14 10:10:00,70.0,59.0,30.03,ESE,108,2.0,8.0,68,0.00,,CLR,0.00,VWS V14.01,2013-06-14 15:10:00,
2013-06-14 10:15:00,69.6,58.6,30.03,SE,126,2.0,8.0,68,0.00,,CLR,0.00,VWS V14.01,2013-06-14 15:15:00,
2013-06-14 10:20:00,69.3,57.9,30.03,SE,128,3.0,8.0,67,0.00,,CLR,0.00,VWS V14.01,2013-06-14 15:20:00,
2013-06-14 10:25:00,69.6,59.0,30.03,ESE,108,3.0,8.0,69,0.00,,CLR,0.00,VWS V14.01,2013-06-14 15:25:00,
2013-06-14 10:30:00,69.9,57.6,30.03,South,188,4.0,7.0,65,0.00,,CLR,0.00,VWS V14.01,2013-06-14 15:30:00,
2013-06-14 10:35:00,69.9,58.0,30.02,ESE,115,1.0,9.0,66,0.00,,CLR,0.00,VWS V14.01,2013-06-14 15:35:00,
2013-06-14 10:40:00,70.7,58.8,30.02,ESE,113,6.0,9.0,66,0.00,,CLR,0.00,VWS V14.01,2013-06-14 15:40:00,
2013-06-14 10:45:00,70.6,59.1,30.02,ESE,123,6.0,9.0,67,0.00,,CLR,0.00,VWS V14.01,2013-06-14 15:45:00,
2013-06-14 10:50:00,70.4,58.1,30.02,ESE,108,3.0,9.0,65,0.00,,CLR,0.00,VWS V14.01,2013-06-14 15:50:00,
2013-06-14 10:55:00,70.3,58.4,30.02,SE,129,4.0,9.0,66,0.00,,CLR,0.00,VWS V14.01,2013-06-14 15:55:00,
2013-06-14 11:00:00,70.3,58.0,30.02,ESE,123,3.0,5.0,65,0.00,,CLR,0.00,VWS V14.01,2013-06-14 16:00:00,
2013-06-14 11:05:00,70.5,58.2,30.01,East,93,6.0,8.0,65,0.00,,CLR,0.00,VWS V14.01,2013-06-14 16:05:00,
2013-06-14 11:10:00,71.0,58.7,30.01,SSE,166,3.0,9.0,65,0.00,,CLR,0.00,VWS V14.01,2013-06-14 16:10:00,
2013-06-14 11:15:00,71.3,59.4,30.01,SE,133,5.0,9.0,66,0.00,,CLR,0.00,VWS V14.01,2013-06-14 16:15:00,
2013-06-14 11:20:00,71.0,58.7,30.00,SE,143,2.0,9.0,65,0.00,,CLR,0.00,VWS V14.01,2013-06-14 16:20:00,
2013-06-14 11:25:00,71.6,59.2,30.00,SE,128,3.0,9.0,65,0.00,,CLR,0.00,VWS V14.01,2013-06-14 16:25:00,
2013-06-14 11:30:00,72.0,59.2,30.00,ESE,114,5.0,10.0,64,0.00,,CLR,0.00,VWS V14.01,2013-06-14 16:30:00,
2013-06-14 11:35:00,71.4,58.6,29.99,East,89,8.0,11.0,64,0.00,,CLR,0.00,VWS V14.01,2013-06-14 16:35:00,
2013-06-14 11:40:00,71.1,58.8,29.99,ESE,112,5.0,12.0,65,0.00,,CLR,0.00,VWS V14.01,2013-06-14 16:40:00,
2013-06-14 11:45:00,71.2,59.3,29.99,ESE,108,8.0,12.0,66,0.00,,CLR,0.00,VWS V14.01,2013-06-14 16:45:00,
2013-06-14 11:50:00,71.7,59.3,29.99,SE,131,5.0,12.0,65,0.00,,CLR,0.00,VWS V14.01,2013-06-14 16:50:00,
2013-06-14 11:55:00,71.9,59.9,29.98,ESE,119,10.0,12.0,66,0.00,,CLR,0.00,VWS V14.01,2013-06-14 16:55:00,
2013-06-14 12:00:00,72.6,60.6,29.99,ESE,120,7.0,8.0,66,0.00,,CLR,0.00,VWS V14.01,2013-06-14 17:00:00,
2013-06-14 12:05:00,73.0,59.7,29.98,SE,135,7.0,13.0,63,0.00,,CLR,0.00,VWS V14.01,2013-06-14 17:05:00,
2013-06-14 12:10:00,73.0,59.7,29.98,ESE,117,5.0,14.0,63,0.00,,CLR,0.00,VWS V14.01,2013-06-14 17:10:00,
2013-06-14 12:15:00,73.0,59.2,29.98,ESE,110,10.0,14.0,62,0.00,,CLR,0.00,VWS V14.01,2013-06-14 17:15:00,
2013-06-14 12:20:00,73.1,59.8,29.98,ESE,121,4.0,14.0,63,0.00,,CLR,0.00,VWS V14.01,2013-06-14 17:20:00,
2013-06-14 12:25:00,73.2,59.4,29.98,ESE,117,3.0,14.0,62,0.00,,CLR,0.00,VWS V14.01,2013-06-14 17:25:00,
2013-06-14 12:30:00,73.8,60.9,29.98,SE,139,3.0,7.0,64,0.00,,CLR,0.00,VWS V14.01,2013-06-14 17:30:00,
2013-06-14 12:35:00,73.7,59.4,29.98,South,170,3.0,9.0,61,0.00,,CLR,0.00,VWS V14.01,2013-06-14 17:35:00,
2013-06-14 12:40:00,73.7,60.3,29.98,SE,136,2.0,9.0,63,0.00,,CLR,0.00,VWS V14.01,2013-06-14 17:40:00,
2013-06-14 12:45:00,73.8,59.1,29.98,SSE,153,4.0,14.0,60,0.00,,CLR,0.00,VWS V14.01,2013-06-14 17:45:00,
2013-06-14 12:50:00,73.5,59.7,29.98,ESE,114,4.0,14.0,62,0.00,,CLR,0.00,VWS V14.01,2013-06-14 17:50:00,
2013-06-14 12:55:00,73.4,59.2,29.98,ESE,113,6.0,14.0,61,0.00,,CLR,0.00,VWS V14.01,2013-06-14 17:55:00,
2013-06-14 13:00:00,73.5,58.8,29.98,SE,132,4.0,7.0,60,0.00,,CLR,0.00,VWS V14.01,2013-06-14 18:00:00,
2013-06-14 13:05:00,73.7,59.9,29.98,ESE,114,4.0,7.0,62,0.00,,CLR,0.00,VWS V14.01,2013-06-14 18:05:00,
2013-06-14 13:10:00,74.3,60.5,29.98,ESE,108,7.0,9.0,62,0.00,,CLR,0.00,VWS V14.01,2013-06-14 18:10:00,
2013-06-14 13:15:00,74.3,59.5,29.98,ESE,118,5.0,9.0,60,0.00,,CLR,0.00,VWS V14.01,2013-06-14 18:15:00,
2013-06-14 13:20:00,74.6,59.8,29.98,East,101,6.0,10.0,60,0.00,,CLR,0.00,VWS V14.01,2013-06-14 18:20:00,
2013-06-14 13:25:00,74.8,59.5,29.97,ESE,114,6.0,10.0,59,0.00,,CLR,0.00,VWS V14.01,2013-06-14 18:25:00,
2013-06-14 13:30:00,74.6,60.3,29.97,SSE,158,6.0,9.0,61,0.00,,CLR,0.00,VWS V14.01,2013-06-14 18:30:00,
2013-06-14 13:35:00,74.6,59.3,29.96,SE,135,1.0,9.0,59,0.00,,CLR,0.00,VWS V14.01,2013-06-14 18:35:00,
2013-06-14 13:40:00,74.7,59.9,29.97,ESE,110,3.0,9.0,60,0.00,,CLR,0.00,VWS V14.01,2013-06-14 18:40:00,
2013-06-14 13:45:00,74.5,59.7,29.97,ESE,121,2.0,9.0,60,0.00,,CLR,0.00,VWS V14.01,2013-06-14 18:45:00,
2013-06-14 13:50:00,74.3,60.5,29.97,South,188,2.0,9.0,62,0.00,,SCT120,0.00,VWS V14.01,2013-06-14 18:50:00,
2013-06-14 13:55:00,74.4,60.1,29.97,SSW,207,2.0,9.0,61,0.00,,SCT120,0.00,VWS V14.01,2013-06-14 18:55:00,
2013-06-14 14:00:00,74.4,60.5,29.97,SE,125,2.0,5.0,62,0.00,,SCT120,0.00,VWS V14.01,2013-06-14 19:00:00,
2013-06-14 14:05:00,74.3,60.0,29.97,ESE,103,5.0,8.0,61,0.00,,SCT120,0.00,VWS V14.01,2013-06-14 19:05:00,
2013-06-14 14:10:00,74.1,59.8,29.96,ESE,120,4.0,8.0,61,0.00,,SCT120,0.00,VWS V14.01,2013-06-14 19:10:00,
2013-06-14 14:15:00,73.8,59.5,29.96,SE,136,3.0,8.0,61,0.00,,SCT120,0.00,VWS V14.01,2013-06-14 19:15:00,
2013-06-14 14:20:00,73.8,59.5,29.96,ESE,104,4.0,8.0,61,0.00,,SCT120,0.00,VWS V14.01,2013-06-14 19:20:00,
2013-06-14 14:25:00,73.7,59.4,29.96,SE,128,3.0,8.0,61,0.00,,SCT120,0.00,VWS V14.01,2013-06-14 19:25:00,
2013-06-14 14:30:00,73.9,59.6,29.95,SE,138,4.0,5.0,61,0.00,,SCT120,0.00,VWS V14.01,2013-06-14 19:30:00,
2013-06-14 14:35:00,74.2,59.9,29.94,ESE,120,6.0,8.0,61,0.00,,BKN120,0.00,VWS V14.01,2013-06-14 19:35:00,
2013-06-14 14:40:00,74.5,59.7,29.94,South,186,5.0,8.0,60,0.00,,BKN120,0.00,VWS V14.01,2013-06-14 19:40:00,
2013-06-14 14:45:00,74.9,60.6,29.94,SE,134,3.0,8.0,61,0.00,,BKN120,0.00,VWS V14.01,2013-06-14 19:45:00,
2013-06-14 14:50:00,75.4,60.6,29.94,South,172,2.0,9.0,60,0.00,,BKN100,0.00,VWS V14.01,2013-06-14 19:50:00,
2013-06-14 14:55:00,75.9,61.0,29.94,SSW,200,8.0,9.0,60,0.00,,BKN100,0.00,VWS V14.01,2013-06-14 19:55:00,
2013-06-14 15:00:00,76.4,61.5,29.93,SE,139,1.0,6.0,60,0.00,,BKN100,0.00,VWS V14.01,2013-06-14 20:00:00,
2013-06-14 15:05:00,76.8,61.4,29.92,South,169,5.0,9.0,59,0.00,,BKN100,0.00,VWS V14.01,2013-06-14 20:05:00,
2013-06-14 15:10:00,76.3,60.5,29.91,SE,145,7.0,9.0,58,0.00,,BKN100,0.00,VWS V14.01,2013-06-14 20:10:00,
2013-06-14 15:15:00,75.9,59.6,29.91,SE,125,7.0,10.0,57,0.00,,BKN100,0.00,VWS V14.01,2013-06-14 20:15:00,
2013-06-14 15:20:00,75.8,59.5,29.91,SE,132,7.0,12.0,57,0.00,,BKN100,0.00,VWS V14.01,2013-06-14 20:20:00,
2013-06-14 15:25:00,75.7,60.4,29.90,SSE,161,8.0,12.0,59,0.00,,BKN100,0.00,VWS V14.01,2013-06-14 20:25:00,
2013-06-14 15:30:00,76.1,60.8,29.90,ESE,120,4.0,7.0,59,0.00,,BKN100,0.00,VWS V14.01,2013-06-14 20:30:00,
2013-06-14 15:35:00,76.1,60.3,29.90,SE,129,10.0,13.0,58,0.00,,BKN090,0.00,VWS V14.01,2013-06-14 20:35:00,
2013-06-14 15:40:00,75.9,59.6,29.90,SE,128,6.0,15.0,57,0.00,,BKN090,0.00,VWS V14.01,2013-06-14 20:40:00,
2013-06-14 15:45:00,75.6,59.8,29.91,ESE,117,3.0,15.0,58,0.00,,BKN090,0.00,VWS V14.01,2013-06-14 20:45:00,
2013-06-14 15:50:00,75.7,59.9,29.91,SSW,203,6.0,15.0,58,0.00,,SCT090,0.00,VWS V14.01,2013-06-14 20:50:00,
2013-06-14 15:55:00,75.6,59.8,29.91,SE,139,5.0,15.0,58,0.00,,SCT090,0.00,VWS V14.01,2013-06-14 20:55:00,
2013-06-14 16:00:00,75.3,60.0,29.90,SE,134,7.0,10.0,59,0.00,,SCT090,0.00,VWS V14.01,2013-06-14 21:00:00,
2013-06-14 16:05:00,75.3,60.0,29.90,East,97,6.0,11.0,59,0.00,,SCT090,0.00,VWS V14.01,2013-06-14 21:05:00,
2013-06-14 16:10:00,75.5,60.2,29.90,SE,131,2.0,11.0,59,0.00,,SCT090,0.00,VWS V14.01,2013-06-14 21:10:00,
2013-06-14 16:15:00,75.6,60.8,29.90,ESE,118,4.0,11.0,60,0.00,,SCT090,0.00,VWS V14.01,2013-06-14 21:15:00,
2013-06-14 16:19:00,75.6,61.2,29.90,South,177,8.0,11.0,61,0.00,,SCT090,0.00,VWS V14.01,2013-06-14 21:19:00,
2013-06-14 16:25:00,75.7,60.8,29.89,SSE,160,5.0,11.0,60,0.00,,SCT090,0.00,VWS V14.01,2013-06-14 21:25:00,
2013-06-14 16:29:00,76.0,61.6,29.90,South,181,1.0,6.0,61,0.00,,SCT090,0.00,VWS V14.01,2013-06-14 21:29:00,
2013-06-14 16:34:00,76.7,60.3,29.89,ESE,114,6.0,10.0,57,0.00,,BKN080,0.00,VWS V14.01,2013-06-14 21:34:00,
2013-06-14 16:39:00,77.2,60.3,29.90,SE,126,6.0,10.0,56,0.00,,BKN080,0.00,VWS V14.01,2013-06-14 21:39:00,
2013-06-14 16:44:00,77.1,59.7,29.89,South,185,3.0,12.0,55,0.00,,BKN080,0.00,VWS V14.01,2013-06-14 21:44:00,
2013-06-14 16:49:00,76.8,59.9,29.89,SSW,207,4.0,12.0,56,0.00,,SCT090,0.00,VWS V14.01,2013-06-14 21:49:00,
2013-06-14 16:54:00,76.2,60.4,29.90,SSE,158,4.0,12.0,58,0.00,,SCT090,0.00,VWS V14.01,2013-06-14 21:54:00,
2013-06-14 16:59:00,75.9,60.1,29.89,SE,136,3.0,7.0,58,0.00,,SCT090,0.00,VWS V14.01,2013-06-14 21:59:00,
2013-06-14 17:04:00,75.8,60.0,29.89,SE,131,5.0,8.0,58,0.00,,SCT090,0.00,VWS V14.01,2013-06-14 22:04:00,
2013-06-14 17:09:00,75.6,60.3,29.89,ESE,120,7.0,8.0,59,0.00,,SCT090,0.00,VWS V14.01,2013-06-14 22:09:00,
2013-06-14 17:14:00,75.4,60.1,29.89,SE,125,4.0,8.0,59,0.00,,SCT090,0.00,VWS V14.01,2013-06-14 22:14:00,
2013-06-14 17:19:00,75.6,60.3,29.89,ESE,113,3.0,8.0,59,0.00,,SCT090,0.00,VWS V14.01,2013-06-14 22:19:00,
2013-06-14 17:24:00,75.8,60.0,29.89,SSE,160,5.0,8.0,58,0.00,,SCT090,0.00,VWS V14.01,2013-06-14 22:24:00,
2013-06-14 17:29:00,75.7,59.9,29.89,SE,131,4.0,7.0,58,0.00,,SCT090,0.00,VWS V14.01,2013-06-14 22:29:00,
2013-06-14 17:34:00,75.6,59.8,29.89,SE,125,2.0,7.0,58,0.00,,OVC090,0.00,VWS V14.01,2013-06-14 22:34:00,
2013-06-14 17:39:00,75.7,60.4,29.89,South,173,3.0,7.0,59,0.00,,OVC090,0.00,VWS V14.01,2013-06-14 22:39:00,
2013-06-14 17:44:00,75.7,59.9,29.88,SSE,162,1.0,7.0,58,0.00,,OVC090,0.00,VWS V14.01,2013-06-14 22:44:00,
2013-06-14 17:49:00,75.6,60.8,29.88,South,179,3.0,8.0,60,0.00,,BKN080,0.00,VWS V14.01,2013-06-14 22:49:00,
2013-06-14 17:54:00,75.5,60.7,29.88,SE,136,3.0,8.0,60,0.00,,BKN080,0.00,VWS V14.01,2013-06-14 22:54:00,
2013-06-14 17:59:00,75.5,60.7,29.88,SSE,165,5.0,9.0,60,0.00,,BKN080,0.00,VWS V14.01,2013-06-14 22:59:00,
2013-06-14 18:04:00,75.3,60.5,29.88,ESE,121,3.0,9.0,60,0.00,,BKN080,0.00,VWS V14.01,2013-06-14 23:04:00,
2013-06-14 18:09:00,75.1,60.3,29.88,SE,139,3.0,9.0,60,0.00,,BKN080,0.00,VWS V14.01,2013-06-14 23:09:00,
2013-06-14 18:14:00,75.1,60.3,29.88,ESE,121,2.0,9.0,60,0.00,,BKN080,0.00,VWS V14.01,2013-06-14 23:14:00,
2013-06-14 18:19:00,75.0,60.7,29.87,SE,139,4.0,9.0,61,0.00,,BKN080,0.00,VWS V14.01,2013-06-14 23:19:00,
2013-06-14 18:24:00,75.0,60.7,29.88,SE,131,4.0,9.0,61,0.00,,BKN080,0.00,VWS V14.01,2013-06-14 23:24:00,
2013-06-14 18:29:00,74.9,60.6,29.87,ESE,121,4.0,7.0,61,0.00,,BKN080,0.00,VWS V14.01,2013-06-14 23:29:00,
2013-06-14 18:34:00,74.9,60.6,29.87,ESE,117,7.0,7.0,61,0.00,,SCT120,0.00,VWS V14.01,2013-06-14 23:34:00,
2013-06-14 18:39:00,74.9,60.6,29.87,SE,140,1.0,7.0,61,0.00,,SCT120,0.00,VWS V14.01,2013-06-14 23:39:00,
2013-06-14 18:44:00,74.8,60.9,29.86,ESE,120,2.0,7.0,62,0.00,,SCT120,0.00,VWS V14.01,2013-06-14 23:44:00,
2013-06-14 18:49:00,74.8,60.9,29.87,SSE,148,5.0,7.0,62,0.00,,SCT100,0.00,VWS V14.01,2013-06-14 23:49:00,
2013-06-14 18:54:00,74.7,60.8,29.87,SE,128,2.0,7.0,62,0.00,,SCT100,0.00,VWS V14.01,2013-06-14 23:54:00,
2013-06-14 18:59:00,74.5,61.1,29.88,ESE,118,2.0,3.0,63,0.00,,SCT100,0.00,VWS V14.01,2013-06-14 23:59:00,
2013-06-14 19:04:00,74.4,61.0,29.87,SE,134,2.0,5.0,63,0.00,,SCT100,0.00,VWS V14.01,2013-06-15 00:04:00,
2013-06-14 19:09:00,74.4,61.0,29.87,SE,125,3.0,6.0,63,0.00,,-RA,0.00,VWS V14.01,2013-06-15 00:09:00,
2013-06-14 19:14:00,74.3,60.5,29.87,ESE,113,5.0,8.0,62,0.00,,-RA,0.00,VWS V14.01,2013-06-15 00:14:00,
2013-06-14 19:19:00,74.3,60.9,29.87,SE,128,4.0,8.0,63,0.00,,-RA,0.00,VWS V14.01,2013-06-15 00:19:00,
2013-06-14 19:24:00,74.3,60.9,29.87,ESE,114,3.0,8.0,63,0.00,,-RA,0.00,VWS V14.01,2013-06-15 00:24:00,
2013-06-14 19:29:00,74.2,60.8,29.87,SSE,147,2.0,3.0,63,0.00,,-RA,0.00,VWS V14.01,2013-06-15 00:29:00,
2013-06-14 19:34:00,74.1,60.7,29.87,ESE,112,1.0,4.0,63,0.00,,-RA,0.00,VWS V14.01,2013-06-15 00:34:00,
2013-06-14 19:39:00,74.0,60.6,29.87,ESE,117,3.0,5.0,63,0.00,,-RA,0.00,VWS V14.01,2013-06-15 00:39:00,
2013-06-14 19:44:00,73.9,61.0,29.86,SE,131,4.0,6.0,64,0.00,,-RA,0.00,VWS V14.01,2013-06-15 00:44:00,
2013-06-14 19:49:00,73.8,60.9,29.87,ESE,108,1.0,6.0,64,0.00,,-RA,0.00,VWS V14.01,2013-06-15 00:49:00,
2013-06-14 19:54:00,73.6,61.1,29.86,ESE,122,3.0,6.0,65,0.00,,-RA,0.00,VWS V14.01,2013-06-15 00:54:00,
2013-06-14 19:59:00,73.4,61.4,29.86,SE,126,2.0,5.0,66,0.00,,-RA,0.00,VWS V14.01,2013-06-15 00:59:00,
2013-06-14 20:04:00,72.8,61.6,29.86,ESE,117,2.0,5.0,68,0.00,,-RA,0.00,VWS V14.01,2013-06-15 01:04:00,
2013-06-14 20:09:00,72.4,61.7,29.86,SE,126,2.0,5.0,69,0.00,,-RA,0.00,VWS V14.01,2013-06-15 01:09:00,
2013-06-14 20:14:00,72.1,61.8,29.86,ESE,105,2.0,5.0,70,0.00,,-RA,0.00,VWS V14.01,2013-06-15 01:14:00,
2013-06-14 20:19:00,71.8,62.3,29.86,ESE,108,2.0,5.0,72,0.00,,-RA,0.00,VWS V14.01,2013-06-15 01:19:00,
2013-06-14 20:24:00,71.6,62.1,29.86,SE,128,2.0,5.0,72,0.00,,-RA,0.00,VWS V14.01,2013-06-15 01:24:00,
2013-06-14 20:29:00,71.4,61.9,29.86,ESE,110,2.0,3.0,72,0.00,,-RA,0.00,VWS V14.01,2013-06-15 01:29:00,
2013-06-14 20:34:00,71.4,62.3,29.85,ESE,105,1.0,4.0,73,0.00,,-RA,0.00,VWS V14.01,2013-06-15 01:34:00,
2013-06-14 20:39:00,71.2,62.1,29.85,ESE,102,2.0,4.0,73,0.00,,-RA,0.00,VWS V14.01,2013-06-15 01:39:00,
2013-06-14 20:44:00,71.0,62.3,29.84,East,100,4.0,5.0,74,0.00,,-RA,0.00,VWS V14.01,2013-06-15 01:44:00,
2013-06-14 20:49:00,70.7,62.4,29.85,ESE,110,2.0,5.0,75,0.00,,-RA,0.00,VWS V14.01,2013-06-15 01:49:00,
2013-06-14 20:54:00,70.5,62.6,29.84,ESE,115,3.0,5.0,76,0.00,,-RA,0.00,VWS V14.01,2013-06-15 01:54:00,
2013-06-14 20:59:00,70.3,62.8,29.84,ESE,113,3.0,4.0,77,0.00,,-RA,0.00,VWS V14.01,2013-06-15 01:59:00,
2013-06-14 21:04:00,70.1,62.6,29.84,East,99,2.0,5.0,77,0.00,,-RA,0.00,VWS V14.01,2013-06-15 02:04:00,
2013-06-14 21:09:00,70.0,62.5,29.84,East,96,4.0,6.0,77,0.00,,-RA,0.00,VWS V14.01,2013-06-15 02:09:00,
2013-06-14 21:14:00,69.9,62.0,29.84,ESE,105,3.0,6.0,76,0.00,,-RA,0.00,VWS V14.01,2013-06-15 02:14:00,
2013-06-14 21:19:00,69.9,62.0,29.84,ESE,113,4.0,6.0,76,0.00,,-RA,0.00,VWS V14.01,2013-06-15 02:19:00,
2013-06-14 21:24:00,69.8,61.9,29.84,ESE,108,1.0,6.0,76,0.00,,-RA,0.00,VWS V14.01,2013-06-15 02:24:00,
2013-06-14 21:29:00,69.6,61.7,29.86,ESE,107,1.0,3.0,76,0.00,,-RA,0.00,VWS V14.01,2013-06-15 02:29:00,
2013-06-14 21:34:00,69.8,61.5,29.86,SE,125,2.0,4.0,75,0.00,,-RA,0.00,VWS V14.01,2013-06-15 02:34:00,
2013-06-14 21:39:00,70.0,61.3,29.86,SE,125,2.0,4.0,74,0.00,,-RA,0.00,VWS V14.01,2013-06-15 02:39:00,
2013-06-14 21:44:00,70.2,61.2,29.87,ESE,120,2.0,4.0,73,0.00,,-RA,0.00,VWS V14.01,2013-06-15 02:44:00,
2013-06-14 21:49:00,70.3,61.2,29.87,SE,124,1.0,4.0,73,0.00,,OVC065,0.00,VWS V14.01,2013-06-15 02:49:00,
2013-06-14 21:54:00,70.5,61.0,29.87,SE,136,1.0,4.0,72,0.00,,OVC065,0.00,VWS V14.01,2013-06-15 02:54:00,
2013-06-14 21:59:00,70.6,61.1,29.87,ESE,117,0.0,3.0,72,0.00,,OVC065,0.00,VWS V14.01,2013-06-15 02:59:00,
2013-06-14 22:04:00,70.6,61.1,29.86,SE,128,1.0,4.0,72,0.00,,OVC065,0.00,VWS V14.01,2013-06-15 03:04:00,
2013-06-14 22:09:00,70.7,61.2,29.86,ESE,120,2.0,4.0,72,0.00,,OVC065,0.00,VWS V14.01,2013-06-15 03:09:00,
2013-06-14 22:14:00,70.7,60.8,29.86,ESE,117,2.0,4.0,71,0.00,,OVC065,0.00,VWS V14.01,2013-06-15 03:14:00,
2013-06-14 22:19:00,70.7,60.8,29.85,SE,124,4.0,6.0,71,0.00,,OVC065,0.00,VWS V14.01,2013-06-15 03:19:00,
2013-06-14 22:24:00,70.6,60.8,29.85,ESE,110,1.0,6.0,71,0.00,,OVC065,0.00,VWS V14.01,2013-06-15 03:24:00,
2013-06-14 22:29:00,70.5,60.7,29.84,ESE,110,2.0,5.0,71,0.00,,OVC065,0.00,VWS V14.01,2013-06-15 03:29:00,
2013-06-14 22:34:00,70.4,60.6,29.84,ESE,110,2.0,5.0,71,0.00,,OVC065,0.00,VWS V14.01,2013-06-15 03:34:00,
2013-06-14 22:39:00,70.3,60.9,29.84,ESE,117,1.0,5.0,72,0.00,,OVC065,0.00,VWS V14.01,2013-06-15 03:39:00,
2013-06-14 22:44:00,70.2,60.8,29.84,ESE,123,0.0,5.0,72,0.00,,OVC065,0.00,VWS V14.01,2013-06-15 03:44:00,
2013-06-14 22:49:00,70.0,60.6,29.83,SE,124,0.0,5.0,72,0.00,,BKN075,0.00,VWS V14.01,2013-06-15 03:49:00,
2013-06-14 22:54:00,69.8,60.4,29.83,SSE,149,0.0,5.0,72,0.00,,BKN075,0.00,VWS V14.01,2013-06-15 03:54:00,
2013-06-14 22:59:00,69.7,60.7,29.84,SE,139,0.0,1.0,73,0.00,,BKN075,0.00,VWS V14.01,2013-06-15 03:59:00,
2013-06-14 23:01:00,69.6,60.6,29.84,SE,139,0.0,1.0,73,0.00,,BKN075,0.00,VWS V14.01,2013-06-15 04:01:00,
2013-06-14 23:06:00,69.4,60.4,29.84,SE,134,0.0,1.0,73,0.00,,BKN075,0.00,VWS V14.01,2013-06-15 04:06:00,
2013-06-14 23:11:00,69.3,60.7,29.84,ESE,108,1.0,1.0,74,0.00,,BKN075,0.00,VWS V14.01,2013-06-15 04:11:00,
2013-06-14 23:16:00,69.0,60.4,29.84,East,79,3.0,3.0,74,0.00,,BKN075,0.00,VWS V14.01,2013-06-15 04:16:00,
2013-06-14 23:21:00,68.7,60.5,29.84,ENE,64,3.0,4.0,75,0.00,,BKN075,0.00,VWS V14.01,2013-06-15 04:21:00,
2013-06-14 23:26:00,68.6,60.7,29.85,East,84,4.0,5.0,76,0.00,,BKN075,0.00,VWS V14.01,2013-06-15 04:26:00,
2013-06-14 23:31:00,68.6,60.7,29.85,East,86,4.0,6.0,76,0.00,,BKN075,0.00,VWS V14.01,2013-06-15 04:31:00,
2013-06-14 23:36:00,68.4,60.5,29.84,ESE,103,3.0,6.0,76,0.00,,SCT090,0.00,VWS V14.01,2013-06-15 04:36:00,
2013-06-14 23:41:00,68.2,60.3,29.84,East,92,3.0,6.0,76,0.00,,SCT090,0.00,VWS V14.01,2013-06-15 04:41:00,
2013-06-14 23:46:00,68.2,60.7,29.84,ESE,117,3.0,6.0,77,0.00,,SCT090,0.00,VWS V14.01,2013-06-15 04:46:00,
2013-06-14 23:51:00,68.1,60.6,29.83,ESE,103,3.0,6.0,77,0.00,,BKN048,0.00,VWS V14.01,2013-06-15 04:51:00,
2013-06-14 23:56:00,67.9,60.4,29.83,East,100,3.0,6.0,77,0.00,,BKN048,0.00,VWS V14.01,2013-06-15 04:56:00,